Location: *
(24.1434°N, 56.8729°E)
Time: 22:20:30
(UTC+00:00)

ATLAS 5 CENTAUR R/B - Pass Details

Date: 09 April 2020
Orbit: 243 x 12942 km, 20.2° (Epoch: 22 May)

Event Time Altitude Azimuth Distance (km) Brightness Sun altitude
Rises 14:45:06 0° 240° (WSW) 2,071 4.6 -3.8°
Reaches altitude 10° 14:46:29 10° 230° (SW) 1,475 3.6 -4.1°
Maximum altitude 14:49:18 39° 157° (SSE) 1,002 1.9 -4.7°
Drops below altitude 10° 14:57:07 10° 91° (E) 4,122 4.6 -6.5°
Enters shadow 14:59:19 - 89° (E) 5,049 5.0 -7.0°
